Starlink 4208

operational
NORAD ID: 52844 Int'l Des: 2022-062 Owner: SPXS Country: US Constellation: starlink
LEOCIRCULAR

Über Starlink 4208

Beschreibung wird geladen...

Live-Position

3D-Globus wird geladen...

Nächste Überflüge

Höhenverlauf

Altitude vs Time

uPlot chart will show altitude changes over time

Zweizeiliger Elementsatz

1 52844U 22062Q 26034.22431222 .00001194 00000-0 93129-4 0 9991
2 52844 53.2163 188.8409 0001279 94.0095 266.1044 15.08830677200582
Epoch: 3. Feb. 2026 • Age: 8 hours

Aktueller Status

Höhe 557.1 km
Geschwindigkeit 7.58 km/s
Subsatellitenpunkt -48.11°S, 162.2°E
Startdatum 17. Juni 2022
Alter 3.6 years
Typ internet

Technische Details

Klassifizierung Payload
Masse 297.00 kg
Trockenmasse 275.00 kg
Gesamtmasse 297.00 kg
Länge 0.20 m
Durchmesser 2.80 m
Spannweite 9.00 m
Form Box + pan
Hersteller SPXS
Bus-Typ Starlink
Phasenstatus In Orbit
Besitzer/Staat SPXS/US

Große Konstellationen

Loading constellations...